FENGYUN 1C DEB, 30751

Orbit data source: Space-Track

FENGYUN 1C DEB, 30751 is space debris in SSO originally from a launch on Mon, 10 May 1999 UTC launched from the Taiyaun Space Center, China (TSC). Fengyun 1C debris stems from the Chinese weather satellite Fengyun-1C, which was intentionally destroyed by a Chinese anti-satellite missile in 2007. This event dramatically increased the amount of space debris, with thousands of trackable fragments posing hazards to satellites and human spaceflight. The Fengyun 1C debris cloud has become a focal point in discussions about space sustainability and the need for international regulations to prevent the creation of new debris.

Loading next visibility...
Identifier
30751, 1999-025ATM
Orbit
SSO
Country
Flag of CNCN / PRC
Related business
Manufacturer
Unknown
Mission
Spacecraft
Bus & Motor
Unknown
Mass
Unknown
Launch date (UTC)
1999-05-10 (27 years ago)
Launch vehicle
Unknown
Launch site
Taiyaun Space Center, China (TSC)
Object type
Payload
Rocket body
Debris
Shape & HBR
Unknown shape, 0.1 m
Radar Cross Section
Small (<0.1 m²)

Expand to show TLE details & history
Last TLE update: 13 hours ago

TLE from 13 hours ago
0 FENGYUN 1C DEB
1 30751U 99025ATM 26121.12658250  .00002004  00000-0  10258-2 0  9996
2 30751  98.8395 184.3051 0051727  59.7775 330.1404 14.15951817982482
Epoch: 2026-05-01T03:02Z
TLE epoch observation values (Epoch: 2026-05-01T03:02:16.728Z)
Latitude
29.2841°
Longitude
-85.30461°
Altitude
810.368 km
Speed
7.467 km/s
True Right ascension
11h 57m 18s
True Declination
29° 08' 19"
Sunlit
Object was in full shadow at epoch
Visualization orbit readout
Latitude
Unknown
Longitude
Unknown
Altitude
Unknown
Speed
Unknown
Apparent Right ascension
Unknown
Apparent Declination
Unknown
Sunlit
N/A
Visualization observer readout
Local Sidereal Time
23:25:24
Azimuth
Unknown
Elevation
Unknown
Doppler factor
Unknown
Orbital elements
Apogee altitude
873.564 km
Perigee altitude
798.928 km
Semi-major axis
7,214.383 km
Eccentricity
0.00517
Inclination
98.8395°
RAAN
184.3051°
Arg. of periapsis
59.7775°
True anomaly
329.84362°
Mean anomaly
330.1404°
Eccentric anomaly
329.99218°
Mean motion
3.54197 °/min
Orbital period
101.64 mins
BSTAR
0.0010258
Loading maneuver chart data...
Computing Atmospheric mass density...
Loading historical data...
Loading historical data...
Loading historical data...
Loading historical data...
Loading historical data...
Loading historical data...
Loading historical data...

Documentation

Showing up to 5 results
|